"Period start","avg(HW err(1)/warn(2) (#))","avg(Visibility (m))","avg(Weather code (#))","avg(Precip intensity (mm/h))","min(HW err(1)/warn(2) (#))","max(HW err(1)/warn(2) (#))","std(HW err(1)/warn(2) (#))","med(HW err(1)/warn(2) (#))","min(Visibility (m))","max(Visibility (m))","std(Visibility (m))","med(Visibility (m))","min(Weather code (#))","max(Weather code (#))","std(Weather code (#))","med(Weather code (#))","min(Precip intensity (mm/h))","max(Precip intensity (mm/h))","std(Precip intensity (mm/h))","med(Precip intensity (mm/h))"
2014-08-15 00:00:00,0,47955,0,0.00,0,0,0,0,42124,50000,2652,49446,0,0,0,0,0.00,0.00,0.00,0.00
2014-08-15 00:10:00,0,46492,0,0.00,0,0,0,0,34722,50000,5273,49756,0,0,0,0,0.00,0.00,0.00,0.00
2014-08-15 00:20:00,0,47967,0,0.00,0,0,0,0,43685,50000,2367,49450,0,0,0,0,0.00,0.00,0.00,0.00
2014-08-15 00:30:00,0,47974,0,0.00,0,0,0,0,39684,50000,3136,49463,0,0,0,0,0.00,0.00,0.00,0.00
2014-08-15 00:40:00,0,37595,0,0.00,0,0,0,0,26229,47140,6824,37198,0,0,0,0,0.00,0.00,0.00,0.00
2014-08-15 00:50:00,0,43777,0,0.00,0,2,1,0,31884,50000,6277,45696,0,0,0,0,0.00,0.00,0.00,0.00
2014-08-15 01:00:00,0,40194,0,0.00,0,0,0,0,26130,50000,9039,44389,0,0,0,0,0.00,0.00,0.00,0.00
2014-08-15 01:10:00,0,40505,0,0.00,0,0,0,0,33746,50000,5282,40537,0,0,0,0,0.00,0.00,0.00,0.00
2014-08-15 01:20:00,0,41621,0,0.00,0,0,0,0,33668,50000,5778,42794,0,0,0,0,0.00,0.00,0.00,0.00
2014-08-15 01:30:00,0,43958,0,0.00,0,0,0,0,33509,50000,5571,45928,0,0,0,0,0.00,0.00,0.00,0.00
2014-08-15 01:40:00,0,46287,0,0.00,0,0,0,0,39073,50000,3833,47312,0,0,0,0,0.00,0.00,0.00,0.00
2014-08-15 01:50:00,0,47201,0,0.00,0,0,0,0,39135,50000,4005,50000,0,0,0,0,0.00,0.00,0.00,0.00
2014-08-15 02:00:00,0,42309,0,0.00,0,0,0,0,32802,47790,4571,43008,0,0,0,0,0.00,0.00,0.00,0.00
2014-08-15 02:10:00,0,48653,0,0.00,0,0,0,0,45320,50000,1884,49802,0,0,0,0,0.00,0.00,0.00,0.00
2014-08-15 02:20:00,0,48447,0,0.00,0,0,0,0,42175,50000,3106,50000,0,0,0,0,0.00,0.00,0.00,0.00
2014-08-15 02:30:00,0,45843,0,0.00,0,0,0,0,39863,50000,4296,46858,0,0,0,0,0.00,0.00,0.00,0.00
2014-08-15 02:40:00,0,49177,0,0.00,0,0,0,0,44935,50000,1550,50000,0,0,0,0,0.00,0.00,0.00,0.00
2014-08-15 02:50:00,0,48603,0,0.00,0,0,0,0,45973,50000,1356,48710,0,0,0,0,0.00,0.00,0.00,0.00
2014-08-15 03:00:00,0,48117,0,0.00,0,2,1,0,42741,50000,2355,49113,0,0,0,0,0.00,0.00,0.00,0.00
2014-08-15 03:10:00,0,48304,0,0.00,0,0,0,0,42993,50000,2541,49648,0,0,0,0,0.00,0.00,0.00,0.00
2014-08-15 03:20:00,0,47359,0,0.00,0,0,0,0,40064,50000,3354,49036,0,0,0,0,0.00,0.00,0.00,0.00
2014-08-15 03:30:00,0,49680,0,0.00,0,0,0,0,47300,50000,797,50000,0,0,0,0,0.00,0.00,0.00,0.00
2014-08-15 03:40:00,0,47111,0,0.00,0,0,0,0,42324,50000,3114,48618,0,0,0,0,0.00,0.00,0.00,0.00
2014-08-15 03:50:00,0,49244,0,0.00,0,0,0,0,46005,50000,1330,50000,0,0,0,0,0.00,0.00,0.00,0.00
2014-08-15 04:00:00,0,48327,0,0.00,0,0,0,0,45163,50000,2088,50000,0,0,0,0,0.00,0.00,0.00,0.00
2014-08-15 04:10:00,0,49475,0,0.00,0,0,0,0,48059,50000,691,50000,0,0,0,0,0.00,0.00,0.00,0.00
2014-08-15 04:20:00,0,47507,0,0.00,0,0,0,0,40469,50000,3007,48654,0,0,0,0,0.00,0.00,0.00,0.00
2014-08-15 04:30:00,0,47604,0,0.00,0,0,0,0,38059,50000,3659,49466,0,0,0,0,0.00,0.00,0.00,0.00
2014-08-15 04:40:00,0,49016,0,0.00,0,0,0,0,44629,50000,1813,50000,0,0,0,0,0.00,0.00,0.00,0.00
2014-08-15 04:50:00,0,49871,0,0.00,0,0,0,0,48714,50000,386,50000,0,0,0,0,0.00,0.00,0.00,0.00
2014-08-15 05:00:00,0,46255,0,0.00,0,0,0,0,33815,50000,6200,50000,0,0,0,0,0.00,0.00,0.00,0.00
2014-08-15 05:10:00,0,45948,0,0.00,0,0,0,0,41044,50000,3178,46965,0,0,0,0,0.00,0.00,0.00,0.00
2014-08-15 05:20:00,0,43844,0,0.00,0,0,0,0,32883,50000,5405,44384,0,0,0,0,0.00,0.00,0.00,0.00
2014-08-15 05:30:00,0,43648,0,0.00,0,0,0,0,37401,50000,4649,44169,0,0,0,0,0.00,0.00,0.00,0.00
2014-08-15 05:40:00,0,49791,0,0.00,0,0,0,0,47908,50000,628,50000,0,0,0,0,0.00,0.00,0.00,0.00
2014-08-15 05:50:00,0,49299,0,0.00,0,0,0,0,44840,50000,1531,50000,0,0,0,0,0.00,0.00,0.00,0.00
2014-08-15 06:00:00,0,47588,0,0.00,0,0,0,0,41166,50000,2826,48692,0,0,0,0,0.00,0.00,0.00,0.00
2014-08-15 06:10:00,0,45005,0,0.00,0,0,0,0,29885,50000,5915,47126,0,0,0,0,0.00,0.00,0.00,0.00
2014-08-15 06:20:00,0,48635,0,0.00,0,0,0,0,44506,50000,2023,50000,0,0,0,0,0.00,0.00,0.00,0.00
2014-08-15 06:30:00,0,48625,0,0.00,0,0,0,0,45289,50000,1892,49960,0,0,0,0,0.00,0.00,0.00,0.00
2014-08-15 06:40:00,0,47368,0,0.00,0,0,0,0,42524,50000,2423,47820,0,0,0,0,0.00,0.00,0.00,0.00
2014-08-15 06:50:00,0,47274,0,0.00,0,0,0,0,39509,50000,3211,48664,0,0,0,0,0.00,0.00,0.00,0.00
2014-08-15 07:00:00,0,49611,0,0.00,0,0,0,0,46613,50000,1010,50000,0,0,0,0,0.00,0.00,0.00,0.00
2014-08-15 07:10:00,0,46802,0,0.00,0,0,0,0,40222,50000,2829,47529,0,0,0,0,0.00,0.00,0.00,0.00
2014-08-15 07:20:00,0,45288,0,0.00,0,0,0,0,35877,50000,4285,46710,0,0,0,0,0.00,0.00,0.00,0.00
2014-08-15 07:30:00,0,49652,0,0.00,0,0,0,0,48475,50000,503,50000,0,0,0,0,0.00,0.00,0.00,0.00
2014-08-15 07:40:00,0,47161,0,0.00,0,0,0,0,41688,50000,3489,49944,0,0,0,0,0.00,0.00,0.00,0.00
2014-08-15 07:50:00,0,48407,0,0.00,0,0,0,0,43810,50000,2219,49892,0,0,0,0,0.00,0.00,0.00,0.00
2014-08-15 08:00:00,0,48351,0,0.00,0,0,0,0,43359,50000,2543,50000,0,0,0,0,0.00,0.00,0.00,0.00
2014-08-15 08:10:00,0,47356,0,0.00,0,0,0,0,41825,50000,2734,48436,0,0,0,0,0.00,0.00,0.00,0.00
2014-08-15 08:20:00,0,47056,0,0.00,0,0,0,0,42806,50000,2385,47022,0,0,0,0,0.00,0.00,0.00,0.00
2014-08-15 08:30:00,0,47578,0,0.00,0,0,0,0,43512,50000,2225,47804,0,0,0,0,0.00,0.00,0.00,0.00
2014-08-15 08:40:00,0,46543,0,0.00,0,0,0,0,41874,50000,3091,47904,0,0,0,0,0.00,0.00,0.00,0.00
2014-08-15 08:50:00,0,42793,0,0.00,0,0,0,0,36635,47035,3492,42834,0,0,0,0,0.00,0.00,0.00,0.00
2014-08-15 09:00:00,0,48245,0,0.00,0,0,0,0,44986,50000,1698,48426,0,0,0,0,0.00,0.00,0.00,0.00
2014-08-15 09:10:00,0,47503,0,0.00,0,0,0,0,43302,50000,2601,48734,0,0,0,0,0.00,0.00,0.00,0.00
2014-08-15 09:20:00,0,46703,0,0.00,0,0,0,0,38980,50000,3916,49074,0,0,0,0,0.00,0.00,0.00,0.00
2014-08-15 09:30:00,0,47127,0,0.00,0,0,0,0,40066,50000,2744,47882,0,0,0,0,0.00,0.00,0.00,0.00
2014-08-15 09:40:00,0,48546,0,0.00,0,0,0,0,44602,50000,1895,49732,0,0,0,0,0.00,0.00,0.00,0.00
2014-08-15 09:50:00,0,49784,0,0.00,0,0,0,0,49090,50000,339,50000,0,0,0,0,0.00,0.00,0.00,0.00
2014-08-15 10:00:00,0,49019,0,0.00,0,0,0,0,46116,50000,1554,50000,0,0,0,0,0.00,0.00,0.00,0.00
2014-08-15 10:10:00,0,48379,0,0.00,0,0,0,0,44533,50000,2081,49439,0,0,0,0,0.00,0.00,0.00,0.00
2014-08-15 10:20:00,0,48326,0,0.00,0,0,0,0,41962,50000,2447,49776,0,0,0,0,0.00,0.00,0.00,0.00
2014-08-15 10:30:00,0,48318,0,0.00,0,0,0,0,43999,50000,1917,48843,0,0,0,0,0.00,0.00,0.00,0.00
2014-08-15 10:40:00,0,38128,0,0.00,0,0,0,0,18238,49371,10122,40958,0,0,0,0,0.00,0.00,0.00,0.00
2014-08-15 10:50:00,0,49283,0,0.00,0,0,0,0,45562,50000,1302,49858,0,0,0,0,0.00,0.00,0.00,0.00
2014-08-15 11:00:00,0,48238,0,0.00,0,0,0,0,39181,50000,3437,50000,0,0,0,0,0.00,0.00,0.00,0.00
2014-08-15 11:10:00,0,49952,0,0.00,0,0,0,0,49519,50000,144,50000,0,0,0,0,0.00,0.00,0.00,0.00
2014-08-15 11:20:00,0,49955,0,0.00,0,0,0,0,49551,50000,135,50000,0,0,0,0,0.00,0.00,0.00,0.00
2014-08-15 11:30:00,0,50000,0,0.00,0,0,0,0,50000,50000,0,50000,0,0,0,0,0.00,0.00,0.00,0.00
2014-08-15 11:40:00,0,49823,0,0.00,0,0,0,0,49071,50000,355,50000,0,0,0,0,0.00,0.00,0.00,0.00
2014-08-15 11:50:00,0,46578,0,0.00,0,0,0,0,39862,50000,3729,47897,0,0,0,0,0.00,0.00,0.00,0.00
2014-08-15 12:00:00,0,45477,0,0.00,0,0,0,0,38355,50000,3699,45177,0,0,0,0,0.00,0.00,0.00,0.00
2014-08-15 12:10:00,0,47212,0,0.00,0,0,0,0,43539,49682,1990,47585,0,0,0,0,0.00,0.00,0.00,0.00
2014-08-15 12:20:00,0,39324,0,0.00,0,0,0,0,31331,48255,5014,39762,0,0,0,0,0.00,0.00,0.00,0.00
2014-08-15 12:30:00,0,42440,0,0.00,0,0,0,0,35637,50000,5175,41570,0,0,0,0,0.00,0.00,0.00,0.00
2014-08-15 12:40:00,0,47263,0,0.00,0,0,0,0,42268,50000,2954,48218,0,0,0,0,0.00,0.00,0.00,0.00
2014-08-15 12:50:00,0,47475,0,0.00,0,0,0,0,44713,50000,2183,46851,0,0,0,0,0.00,0.00,0.00,0.00
2014-08-15 13:00:00,0,49014,0,0.00,0,0,0,0,45567,50000,1516,50000,0,0,0,0,0.00,0.00,0.00,0.00
2014-08-15 13:10:00,0,47799,0,0.00,0,0,0,0,45268,50000,1681,48024,0,0,0,0,0.00,0.00,0.00,0.00
2014-08-15 13:20:00,0,40154,0,0.00,0,0,0,0,34784,45944,2819,40065,0,0,0,0,0.00,0.00,0.00,0.00
2014-08-15 13:30:00,0,43213,0,0.00,0,0,0,0,37773,50000,3956,42872,0,0,0,0,0.00,0.00,0.00,0.00
2014-08-15 13:40:00,0,43170,0,0.00,0,0,0,0,37375,49487,3955,43335,0,0,0,0,0.00,0.00,0.00,0.00
2014-08-15 13:50:00,0,40077,0,0.00,0,0,0,0,35673,43590,2431,40562,0,0,0,0,0.00,0.00,0.00,0.00
2014-08-15 14:00:00,0,41334,0,0.00,0,0,0,0,36220,46790,3202,42096,0,0,0,0,0.00,0.00,0.00,0.00
2014-08-15 14:10:00,0,41778,0,0.00,0,0,0,0,35859,46325,3468,42428,0,0,0,0,0.00,0.00,0.00,0.00
2014-08-15 14:20:00,0,26028,2,0.00,0,0,0,0,1212,49669,18725,33255,0,10,4,0,0.00,0.00,0.00,0.00
2014-08-15 14:30:00,0,24307,10,0.00,0,0,0,0,5540,46411,14220,23784,10,10,0,10,0.00,0.00,0.00,0.00
2014-08-15 14:40:00,0,10242,7,0.00,0,0,0,0,1907,20748,6916,8232,0,10,5,10,0.00,0.00,0.00,0.00
2014-08-15 14:50:00,0,22729,8,0.00,0,0,0,0,8223,42414,11223,22091,0,10,4,10,0.00,0.00,0.00,0.00
2014-08-15 15:00:00,0,36944,0,0.00,0,0,0,0,29687,44886,5182,37970,0,0,0,0,0.00,0.00,0.00,0.00
2014-08-15 15:10:00,0,39023,0,0.00,0,0,0,0,31941,46168,3866,38126,0,0,0,0,0.00,0.00,0.00,0.00
2014-08-15 15:20:00,0,28789,0,0.00,0,0,0,0,21352,39045,6068,27467,0,0,0,0,0.00,0.00,0.00,0.00
2014-08-15 15:30:00,0,41457,0,0.00,0,0,0,0,24604,47366,6965,43248,0,0,0,0,0.00,0.00,0.00,0.00
2014-08-15 15:40:00,0,39457,0,0.00,0,0,0,0,32349,46227,4520,39466,0,0,0,0,0.00,0.00,0.00,0.00
2014-08-15 15:50:00,0,31466,0,0.00,0,0,0,0,23889,43398,6142,29228,0,0,0,0,0.00,0.00,0.00,0.00
2014-08-15 16:00:00,0,28856,0,0.00,0,0,0,0,24931,32781,2325,29180,0,0,0,0,0.00,0.00,0.00,0.00
2014-08-15 16:10:00,0,34264,0,0.00,0,0,0,0,25653,41519,5073,34561,0,0,0,0,0.00,0.00,0.00,0.00
2014-08-15 16:20:00,0,32390,0,0.00,0,0,0,0,26603,40436,4437,32900,0,0,0,0,0.00,0.00,0.00,0.00
2014-08-15 16:30:00,0,24964,0,0.00,0,0,0,0,17980,34193,5227,24400,0,0,0,0,0.00,0.00,0.00,0.00
2014-08-15 16:40:00,0,26177,0,0.00,0,0,0,0,18817,44881,7712,23388,0,0,0,0,0.00,0.00,0.00,0.00
2014-08-15 16:50:00,0,42304,0,0.00,0,0,0,0,30140,50000,6932,42752,0,0,0,0,0.00,0.00,0.00,0.00
2014-08-15 17:00:00,0,48271,0,0.00,0,0,0,0,43726,50000,2209,49580,0,0,0,0,0.00,0.00,0.00,0.00
2014-08-15 17:10:00,0,49177,0,0.00,0,0,0,0,44411,50000,1681,50000,0,0,0,0,0.00,0.00,0.00,0.00
2014-08-15 17:20:00,0,49692,0,0.00,0,0,0,0,47100,50000,866,50000,0,0,0,0,0.00,0.00,0.00,0.00
2014-08-15 17:30:00,0,48933,0,0.00,0,0,0,0,43877,50000,2001,50000,0,0,0,0,0.00,0.00,0.00,0.00
2014-08-15 17:40:00,0,49578,0,0.00,0,0,0,0,48411,50000,657,50000,0,0,0,0,0.00,0.00,0.00,0.00
2014-08-15 17:50:00,0,49028,0,0.00,0,0,0,0,44253,50000,1762,50000,0,0,0,0,0.00,0.00,0.00,0.00
2014-08-15 18:00:00,0,48599,0,0.00,0,0,0,0,45976,50000,1541,49050,0,0,0,0,0.00,0.00,0.00,0.00
2014-08-15 18:10:00,0,49664,0,0.00,0,0,0,0,47312,50000,809,50000,0,0,0,0,0.00,0.00,0.00,0.00
2014-08-15 18:20:00,0,49999,0,0.00,0,0,0,0,49986,50000,4,50000,0,0,0,0,0.00,0.00,0.00,0.00
2014-08-15 18:30:00,0,49921,0,0.00,0,0,0,0,49207,50000,238,50000,0,0,0,0,0.00,0.00,0.00,0.00
2014-08-15 18:40:00,0,49585,0,0.00,0,0,0,0,47006,50000,926,50000,0,0,0,0,0.00,0.00,0.00,0.00
2014-08-15 18:50:00,0,49223,0,0.00,0,0,0,0,47466,50000,909,49730,0,0,0,0,0.00,0.00,0.00,0.00
2014-08-15 19:00:00,0,39589,0,0.00,0,0,0,0,27581,50000,9091,39633,0,0,0,0,0.00,0.00,0.00,0.00
2014-08-15 19:10:00,0,47084,0,0.00,0,0,0,0,38026,50000,4333,49758,0,0,0,0,0.00,0.00,0.00,0.00
2014-08-15 19:20:00,0,50000,0,0.00,0,0,0,0,50000,50000,0,50000,0,0,0,0,0.00,0.00,0.00,0.00
2014-08-15 19:30:00,0,49956,0,0.00,0,0,0,0,49556,50000,133,50000,0,0,0,0,0.00,0.00,0.00,0.00
2014-08-15 19:40:00,0,49835,0,0.00,0,0,0,0,48348,50000,496,50000,0,0,0,0,0.00,0.00,0.00,0.00
2014-08-15 19:50:00,0,49884,0,0.00,0,0,0,0,48835,50000,350,50000,0,0,0,0,0.00,0.00,0.00,0.00
2014-08-15 20:00:00,0,49715,0,0.00,0,0,0,0,47146,50000,856,50000,0,0,0,0,0.00,0.00,0.00,0.00
2014-08-15 20:10:00,0,39846,17,0.23,0,0,0,0,20906,50000,9913,44902,0,61,27,0,0.00,1.25,0.42,0.00
2014-08-15 20:20:00,0,44580,20,0.07,0,0,0,0,33087,50000,6319,47878,0,52,25,0,0.00,0.40,0.13,0.00
2014-08-15 20:30:00,0,50000,0,0.00,0,0,0,0,50000,50000,0,50000,0,0,0,0,0.00,0.00,0.00,0.00
2014-08-15 20:40:00,0,49370,0,0.00,0,0,0,0,46472,50000,1272,50000,0,0,0,0,0.00,0.00,0.00,0.00
2014-08-15 20:50:00,0,49808,0,0.00,0,0,0,0,48513,50000,451,50000,0,0,0,0,0.00,0.00,0.00,0.00
2014-08-15 21:00:00,0,49667,0,0.00,0,0,0,0,48803,50000,512,50000,0,0,0,0,0.00,0.00,0.00,0.00
2014-08-15 21:10:00,0,49749,0,0.00,0,0,0,0,48458,50000,497,50000,0,0,0,0,0.00,0.00,0.00,0.00
2014-08-15 21:20:00,0,44052,0,0.00,0,0,0,0,9364,50000,12344,50000,0,0,0,0,0.00,0.00,0.00,0.00
2014-08-15 21:30:00,0,49939,0,0.00,0,0,0,0,49393,50000,182,50000,0,0,0,0,0.00,0.00,0.00,0.00
2014-08-15 21:40:00,0,45039,0,0.00,0,0,0,0,20541,50000,9017,49606,0,0,0,0,0.00,0.00,0.00,0.00
2014-08-15 21:50:00,0,49808,0,0.00,0,0,0,0,48564,50000,439,50000,0,0,0,0,0.00,0.00,0.00,0.00
2014-08-15 22:00:00,0,49996,0,0.00,0,0,0,0,49977,50000,9,50000,0,0,0,0,0.00,0.00,0.00,0.00
2014-08-15 22:10:00,0,50000,0,0.00,0,0,0,0,50000,50000,0,50000,0,0,0,0,0.00,0.00,0.00,0.00
2014-08-15 22:20:00,0,49869,0,0.00,0,0,0,0,48686,50000,394,50000,0,0,0,0,0.00,0.00,0.00,0.00
2014-08-15 22:30:00,0,50000,0,0.00,0,0,0,0,50000,50000,0,50000,0,0,0,0,0.00,0.00,0.00,0.00
2014-08-15 22:40:00,0,50000,0,0.00,0,0,0,0,50000,50000,0,50000,0,0,0,0,0.00,0.00,0.00,0.00
2014-08-15 22:50:00,0,50000,0,0.00,0,0,0,0,50000,50000,0,50000,0,0,0,0,0.00,0.00,0.00,0.00
2014-08-15 23:00:00,0,48984,0,0.00,0,0,0,0,43161,50000,2025,49912,0,0,0,0,0.00,0.00,0.00,0.00
2014-08-15 23:10:00,0,49599,0,0.00,0,0,0,0,45987,50000,1204,50000,0,0,0,0,0.00,0.00,0.00,0.00
2014-08-15 23:20:00,0,49765,0,0.00,0,0,0,0,48513,50000,490,50000,0,0,0,0,0.00,0.00,0.00,0.00
2014-08-15 23:30:00,0,48665,0,0.00,0,0,0,0,41885,50000,2611,50000,0,0,0,0,0.00,0.00,0.00,0.00
2014-08-15 23:40:00,0,47361,0,0.00,0,0,0,0,40561,50000,2845,48291,0,0,0,0,0.00,0.00,0.00,0.00
2014-08-15 23:50:00,0,48801,0,0.00,0,0,0,0,42207,50000,2375,50000,0,0,0,0,0.00,0.00,0.00,0.00
